Data start date =,4/2/1934
Data end date/time =,5/1/2024 12:00
Vertical Datum =,MSL1912
""
Date/Time,LockDam_05
,Elev
UTC,ft
,Ave
4/3/1934 12:00,647.25
4/4/1934 12:00,652.45
4/5/1934 12:00,654.65
4/6/1934 12:00,655.80
4/7/1934 12:00,655.80
4/8/1934 12:00,655.80
4/9/1934 12:00,655.80
4/10/1934 12:00,655.45
4/11/1934 12:00,655.10
4/12/1934 12:00,654.85
4/13/1934 12:00,654.70
4/14/1934 12:00,654.40
4/15/1934 12:00,654.00
4/16/1934 12:00,653.75
4/17/1934 12:00,653.30
4/18/1934 12:00,652.85
4/19/1934 12:00,652.55
4/20/1934 12:00,652.15
4/21/1934 12:00,651.85
4/22/1934 12:00,651.63
4/23/1934 12:00,651.45
4/24/1934 12:00,651.15
4/25/1934 12:00,650.85
4/26/1934 12:00,650.65
4/27/1934 12:00,650.45
4/28/1934 12:00,650.25
4/29/1934 12:00,650.10
4/30/1934 12:00,649.87
5/1/1934 12:00,649.66
5/2/1934 12:00,649.45
5/3/1934 12:00,649.41
5/4/1934 12:00,649.24
5/5/1934 12:00,649.14
5/6/1934 12:00,649.14
5/7/1934 12:00,648.99
5/8/1934 12:00,648.94
5/9/1934 12:00,648.74
5/10/1934 12:00,648.74
5/11/1934 12:00,648.84
5/12/1934 12:00,648.64
5/13/1934 12:00,648.44
5/14/1934 12:00,648.44
5/15/1934 12:00,648.29
5/16/1934 12:00,648.14
5/17/1934 12:00,647.99
5/18/1934 12:00,647.84
5/19/1934 12:00,647.79
5/20/1934 12:00,647.54
5/21/1934 12:00,647.74
5/22/1934 12:00,647.69
5/23/1934 12:00,647.54
5/24/1934 12:00,647.44
5/25/1934 12:00,647.39
5/26/1934 12:00,647.34
5/27/1934 12:00,647.29
5/28/1934 12:00,647.24
5/29/1934 12:00,647.14
5/30/1934 12:00,647.04
5/31/1934 12:00,646.94
6/1/1934 12:00,646.74
6/2/1934 12:00,646.74
6/3/1934 12:00,646.64
6/4/1934 12:00,646.54
6/5/1934 12:00,646.44
6/6/1934 12:00,646.39
6/7/1934 12:00,646.34
6/8/1934 12:00,646.14
6/9/1934 12:00,646.54
6/10/1934 12:00,646.64
6/11/1934 12:00,646.74
6/12/1934 12:00,646.69
6/13/1934 12:00,646.49
6/14/1934 12:00,646.44
6/15/1934 12:00,646.34
6/16/1934 12:00,646.34
6/17/1934 12:00,646.33
6/18/1934 12:00,646.34
6/19/1934 12:00,646.24
6/20/1934 12:00,646.24
6/21/1934 12:00,646.24
6/22/1934 12:00,646.24
6/23/1934 12:00,646.19
6/24/1934 12:00,646.16
6/25/1934 12:00,646.14
6/26/1934 12:00,646.09
6/27/1934 12:00,646.24
6/28/1934 12:00,646.14
6/29/1934 12:00,646.24
6/30/1934 12:00,646.24
7/1/1934 12:00,646.22
7/2/1934 12:00,646.19
7/3/1934 12:00,646.14
7/4/1934 12:00,646.04
7/5/1934 12:00,645.94
7/6/1934 12:00,646.04
7/7/1934 12:00,646.04
7/8/1934 12:00,645.78
7/9/1934 12:00,645.54
7/10/1934 12:00,645.44
7/11/1934 12:00,645.74
7/12/1934 12:00,645.64
7/13/1934 12:00,645.74
7/14/1934 12:00,645.74
7/15/1934 12:00,645.74
7/16/1934 12:00,645.74
7/17/1934 12:00,645.64
7/18/1934 12:00,645.54
7/19/1934 12:00,645.64
7/20/1934 12:00,646.04
7/21/1934 12:00,645.84
7/22/1934 12:00,645.78
7/23/1934 12:00,645.74
7/24/1934 12:00,645.74
7/25/1934 12:00,645.64
7/26/1934 12:00,646.44
7/27/1934 12:00,646.54
7/28/1934 12:00,647.24
7/29/1934 12:00,647.29
7/30/1934 12:00,647.24
7/31/1934 12:00,647.06
8/1/1934 12:00,646.94
8/2/1934 12:00,646.94
8/3/1934 12:00,647.04
8/4/1934 12:00,646.94
8/5/1934 12:00,646.89
8/6/1934 12:00,646.89
8/7/1934 12:00,646.89
8/8/1934 12:00,646.99
8/9/1934 12:00,647.14
8/10/1934 12:00,647.09
8/11/1934 12:00,646.99
8/12/1934 12:00,646.94
8/13/1934 12:00,646.84
8/14/1934 12:00,646.84
8/15/1934 12:00,646.74
8/16/1934 12:00,646.79
8/17/1934 12:00,646.84
8/18/1934 12:00,647.04
8/19/1934 12:00,647.24
8/20/1934 12:00,647.54
8/21/1934 12:00,646.94
8/22/1934 12:00,646.89
8/23/1934 12:00,646.79
8/24/1934 12:00,646.94
8/25/1934 12:00,646.94
8/26/1934 12:00,646.84
8/27/1934 12:00,646.79
8/28/1934 12:00,646.74
8/29/1934 12:00,646.74
8/30/1934 12:00,646.69
8/31/1934 12:00,646.86
9/1/1934 12:00,647.04
9/2/1934 12:00,647.14
9/3/1934 12:00,647.24
9/4/1934 12:00,647.29
9/5/1934 12:00,647.34
9/6/1934 12:00,647.29
9/7/1934 12:00,647.34
9/8/1934 12:00,647.39
9/9/1934 12:00,647.39
9/10/1934 12:00,647.44
9/11/1934 12:00,647.44
9/12/1934 12:00,647.44
9/13/1934 12:00,647.54
9/14/1934 12:00,647.54
9/15/1934 12:00,647.64
9/16/1934 12:00,647.74
9/17/1934 12:00,647.64
9/18/1934 12:00,647.64
9/19/1934 12:00,647.39
9/20/1934 12:00,647.19
9/21/1934 12:00,647.24
9/22/1934 12:00,647.19
9/23/1934 12:00,647.19
9/24/1934 12:00,647.29
9/25/1934 12:00,647.84
9/26/1934 12:00,649.74
9/27/1934 12:00,650.94
9/28/1934 12:00,650.84
9/29/1934 12:00,650.94
9/30/1934 12:00,650.92
10/1/1934 12:00,651.19
10/2/1934 12:00,651.59
10/3/1934 12:00,651.69
10/4/1934 12:00,651.47
10/5/1934 12:00,651.14
10/6/1934 12:00,650.94
10/7/1934 12:00,650.74
10/8/1934 12:00,650.54
10/9/1934 12:00,650.14
10/10/1934 12:00,649.64
10/11/1934 12:00,649.54
10/12/1934 12:00,649.34
10/13/1934 12:00,649.14
10/14/1934 12:00,648.94
10/15/1934 12:00,648.74
10/16/1934 12:00,648.44
10/17/1934 12:00,648.34
10/18/1934 12:00,648.34
10/19/1934 12:00,648.14
10/20/1934 12:00,648.04
10/21/1934 12:00,648.74
10/22/1934 12:00,648.84
10/23/1934 12:00,648.94
10/24/1934 12:00,649.09
10/25/1934 12:00,649.44
10/26/1934 12:00,649.79
10/27/1934 12:00,649.99
10/28/1934 12:00,650.24
10/29/1934 12:00,650.24
10/30/1934 12:00,650.24
10/31/1934 12:00,650.09
11/1/1934 12:00,649.94
11/2/1934 12:00,649.74
11/3/1934 12:00,649.54
11/4/1934 12:00,649.59
11/5/1934 12:00,649.49
11/6/1934 12:00,649.29
11/7/1934 12:00,649.09
11/8/1934 12:00,649.04
11/9/1934 12:00,649.04
11/10/1934 12:00,649.04
11/11/1934 12:00,648.99
11/12/1934 12:00,648.84
11/13/1934 12:00,648.64
11/14/1934 12:00,648.44
11/15/1934 12:00,648.39
11/16/1934 12:00,648.34
11/17/1934 12:00,648.19
11/18/1934 12:00,648.14
11/19/1934 12:00,648.19
11/20/1934 12:00,648.19
11/21/1934 12:00,648.34
11/22/1934 12:00,648.49
11/23/1934 12:00,648.94
11/24/1934 12:00,649.24
11/25/1934 12:00,649.64
11/26/1934 12:00,650.04
11/27/1934 12:00,650.34
11/28/1934 12:00,650.44
11/29/1934 12:00,650.44
11/30/1934 12:00,650.44
12/1/1934 12:00,650.54
12/2/1934 12:00,650.49
12/3/1934 12:00,650.44
12/4/1934 12:00,650.34
12/5/1934 12:00,650.14
12/6/1934 12:00,649.84
12/7/1934 12:00,649.69
12/8/1934 12:00,649.24
12/9/1934 12:00,649.14
12/10/1934 12:00,648.89
12/11/1934 12:00,648.79
12/12/1934 12:00,648.84
12/13/1934 12:00,650.84
12/14/1934 12:00,651.64
12/15/1934 12:00,652.04
12/16/1934 12:00,652.34
12/17/1934 12:00,652.54
12/18/1934 12:00,652.34
12/19/1934 12:00,652.34
12/20/1934 12:00,652.09
12/21/1934 12:00,651.69
12/22/1934 12:00,651.59
12/23/1934 12:00,651.54
12/24/1934 12:00,650.89
12/25/1934 12:00,649.94
12/26/1934 12:00,649.79
12/27/1934 12:00,648.64
12/28/1934 12:00,648.04
12/29/1934 12:00,648.74
12/30/1934 12:00,649.34
12/31/1934 12:00,649.84
1/1/1935 12:00,650.09
1/2/1935 12:00,650.24
1/3/1935 12:00,650.34
1/4/1935 12:00,650.09
1/5/1935 12:00,649.99
1/6/1935 12:00,650.04
1/7/1935 12:00,650.04
1/8/1935 12:00,650.14
1/9/1935 12:00,650.14
1/10/1935 12:00,650.09
1/11/1935 12:00,650.04
1/12/1935 12:00,649.99
1/13/1935 12:00,649.89
1/14/1935 12:00,649.39
1/15/1935 12:00,649.44
1/16/1935 12:00,649.44
1/17/1935 12:00,649.39
1/18/1935 12:00,649.04
1/19/1935 12:00,649.34
1/20/1935 12:00,649.44
1/21/1935 12:00,649.14
1/22/1935 12:00,648.94
1/23/1935 12:00,648.89
1/24/1935 12:00,649.14
1/25/1935 12:00,649.04
1/26/1935 12:00,649.14
1/27/1935 12:00,649.24
1/28/1935 12:00,649.14
1/29/1935 12:00,649.14
1/30/1935 12:00,649.24
1/31/1935 12:00,649.34
2/1/1935 12:00,649.44
2/2/1935 12:00,649.54
2/3/1935 12:00,649.74
2/4/1935 12:00,649.84
2/5/1935 12:00,649.74
2/6/1935 12:00,649.69
2/7/1935 12:00,649.54
2/8/1935 12:00,649.79
2/9/1935 12:00,649.69
2/10/1935 12:00,649.94
2/11/1935 12:00,649.94
2/12/1935 12:00,649.79
2/13/1935 12:00,649.54
2/14/1935 12:00,649.29
2/15/1935 12:00,648.89
2/16/1935 12:00,648.84
2/17/1935 12:00,648.74
2/18/1935 12:00,648.64
2/19/1935 12:00,648.49
2/20/1935 12:00,648.44
2/21/1935 12:00,648.44
2/22/1935 12:00,648.44
2/23/1935 12:00,648.49
2/24/1935 12:00,648.44
2/25/1935 12:00,648.54
2/26/1935 12:00,649.74
2/27/1935 12:00,649.99
2/28/1935 12:00,650.19
3/1/1935 12:00,650.04
3/2/1935 12:00,649.69
3/3/1935 12:00,649.04
3/4/1935 12:00,648.69
3/5/1935 12:00,648.54
3/6/1935 12:00,648.44
3/7/1935 12:00,648.54
3/8/1935 12:00,648.69
3/9/1935 12:00,648.74
3/10/1935 12:00,648.79
3/11/1935 12:00,648.99
3/12/1935 12:00,649.14
3/13/1935 12:00,649.19
3/14/1935 12:00,649.34
3/15/1935 12:00,649.79
3/16/1935 12:00,650.24
3/17/1935 12:00,650.74
3/18/1935 12:00,651.49
3/19/1935 12:00,652.04
3/20/1935 12:00,651.84
3/21/1935 12:00,652.19
3/22/1935 12:00,652.64
3/23/1935 12:00,653.09
3/24/1935 12:00,653.44
3/25/1935 12:00,654.44
3/26/1935 12:00,656.04
3/27/1935 12:00,657.34
3/28/1935 12:00,657.64
3/29/1935 12:00,657.84
3/30/1935 12:00,657.74
3/31/1935 12:00,657.44
4/1/1935 12:00,657.14
4/2/1935 12:00,656.64
4/3/1935 12:00,656.34
4/4/1935 12:00,655.84
4/5/1935 12:00,655.44
4/6/1935 12:00,654.94
4/7/1935 12:00,654.54
4/8/1935 12:00,654.24
4/9/1935 12:00,653.84
4/10/1935 12:00,653.34
4/11/1935 12:00,653.19
4/12/1935 12:00,653.04
4/13/1935 12:00,652.84
4/14/1935 12:00,652.69
4/15/1935 12:00,652.64
4/16/1935 12:00,652.74
4/17/1935 12:00,652.44
4/18/1935 12:00,652.14
4/19/1935 12:00,651.94
4/20/1935 12:00,651.84
4/21/1935 12:00,651.69
4/22/1935 12:00,651.59
4/23/1935 12:00,651.39
4/24/1935 12:00,651.19
4/25/1935 12:00,651.19
4/26/1935 12:00,651.14
4/27/1935 12:00,651.24
4/28/1935 12:00,651.24
4/29/1935 12:00,651.24
4/30/1935 12:00,651.14
5/1/1935 12:00,651.04
5/2/1935 12:00,650.89
5/3/1935 12:00,650.99
5/4/1935 12:00,651.24
5/5/1935 12:00,651.59
5/6/1935 12:00,651.64
5/7/1935 12:00,651.56
5/8/1935 12:00,651.56
5/9/1935 12:00,651.74
5/10/1935 12:00,651.74
5/11/1935 12:00,651.84
5/12/1935 12:00,652.29
5/13/1935 12:00,652.99
5/14/1935 12:00,652.99
5/15/1935 12:00,652.84
5/16/1935 12:00,652.94
5/17/1935 12:00,652.74
5/18/1935 12:00,653.14
5/19/1935 12:00,653.09
5/20/1935 12:00,653.04
5/21/1935 12:00,652.84
5/22/1935 12:00,652.74
5/23/1935 12:00,652.49
5/24/1935 12:00,652.39
5/25/1935 12:00,652.24
5/26/1935 12:00,652.09
5/27/1935 12:00,652.04
5/28/1935 12:00,651.79
5/29/1935 12:00,651.09
5/30/1935 12:00,654.14
5/31/1935 12:00,655.52
6/1/1935 12:00,655.93
6/2/1935 12:00,656.49
6/3/1935 12:00,657.44
6/4/1935 12:00,657.94
6/5/1935 12:00,658.09
6/6/1935 12:00,657.90
6/7/1935 12:00,658.06
6/8/1935 12:00,658.13
6/9/1935 12:00,658.23
6/10/1935 12:00,658.29
6/11/1935 12:00,658.60
6/12/1935 12:00,658.74
6/13/1935 12:00,658.75
6/14/1935 12:00,658.82
6/15/1935 12:00,659.02
6/16/1935 12:00,658.86
6/17/1935 12:00,659.00
6/18/1935 12:00,658.69
6/19/1935 12:00,658.48
6/20/1935 12:00,658.24
6/21/1935 12:00,658.14
6/22/1935 12:00,657.53
6/23/1935 12:00,655.94
6/24/1935 12:00,654.45
6/25/1935 12:00,655.45
6/26/1935 12:00,655.25
6/27/1935 12:00,655.26
6/28/1935 12:00,655.25
6/29/1935 12:00,655.20
6/30/1935 12:00,655.25
7/1/1935 12:00,656.80
7/2/1935 12:00,657.75
7/3/1935 12:00,656.60
7/4/1935 12:00,655.25
7/5/1935 12:00,655.45
7/6/1935 12:00,655.25
7/7/1935 12:00,655.28
7/8/1935 12:00,655.30
7/9/1935 12:00,655.25
7/10/1935 12:00,655.25
7/11/1935 12:00,655.25
7/12/1935 12:00,655.25
7/13/1935 12:00,655.25
7/14/1935 12:00,655.25
7/15/1935 12:00,655.25
7/16/1935 12:00,655.25
7/17/1935 12:00,655.25
7/18/1935 12:00,655.25
7/19/1935 12:00,656.15
7/20/1935 12:00,657.30
7/21/1935 12:00,658.10
7/22/1935 12:00,658.85
7/23/1935 12:00,659.22
7/24/1935 12:00,659.20
7/25/1935 12:00,659.00
7/26/1935 12:00,659.20
7/27/1935 12:00,659.20
7/28/1935 12:00,659.20
7/29/1935 12:00,659.20
7/30/1935 12:00,659.00
7/31/1935 12:00,659.00
8/1/1935 12:00,659.20
8/2/1935 12:00,659.20
8/3/1935 12:00,659.20
8/4/1935 12:00,658.00
8/5/1935 12:00,657.80
8/6/1935 12:00,658.80
8/7/1935 12:00,658.10
8/8/1935 12:00,657.00
8/9/1935 12:00,656.50
8/10/1935 12:00,655.25
8/11/1935 12:00,655.25
8/12/1935 12:00,657.00
8/13/1935 12:00,658.00
8/14/1935 12:00,658.90
8/15/1935 12:00,659.10
8/16/1935 12:00,659.00
8/17/1935 12:00,659.10
8/18/1935 12:00,659.10
8/19/1935 12:00,659.10
8/20/1935 12:00,659.10
8/21/1935 12:00,659.00
8/22/1935 12:00,659.00
8/23/1935 12:00,658.90
8/24/1935 12:00,658.80
8/25/1935 12:00,658.80
8/26/1935 12:00,658.80
8/27/1935 12:00,658.90
8/28/1935 12:00,658.88
8/29/1935 12:00,658.85
8/30/1935 12:00,659.00
8/31/1935 12:00,658.85
9/1/1935 12:00,658.85
9/2/1935 12:00,658.83
9/3/1935 12:00,658.80
9/4/1935 12:00,658.82
9/5/1935 12:00,659.10
9/6/1935 12:00,659.18
9/7/1935 12:00,659.28
9/8/1935 12:00,659.30
9/9/1935 12:00,659.30
9/10/1935 12:00,659.30
9/11/1935 12:00,659.26
9/12/1935 12:00,659.30
9/13/1935 12:00,659.25
9/14/1935 12:00,659.20
9/15/1935 12:00,659.30
9/16/1935 12:00,659.20
9/17/1935 12:00,659.28
9/18/1935 12:00,659.23
9/19/1935 12:00,659.44
9/20/1935 12:00,659.42
9/21/1935 12:00,659.40
9/22/1935 12:00,659.40
9/23/1935 12:00,659.37
9/24/1935 12:00,659.36
9/25/1935 12:00,659.40
9/26/1935 12:00,659.38
9/27/1935 12:00,659.38
9/28/1935 12:00,659.30
9/29/1935 12:00,659.30
9/30/1935 12:00,659.32
10/1/1935 12:00,659.17
10/2/1935 12:00,658.95
10/3/1935 12:00,658.95
10/4/1935 12:00,658.78
10/5/1935 12:00,658.45
10/6/1935 12:00,658.25
10/7/1935 12:00,658.15
10/8/1935 12:00,658.12
10/9/1935 12:00,658.15
10/10/1935 12:00,658.30
10/11/1935 12:00,658.30
10/12/1935 12:00,658.10
10/13/1935 12:00,658.30
10/14/1935 12:00,658.30
10/15/1935 12:00,658.25
10/16/1935 12:00,658.15
10/17/1935 12:00,658.25
10/18/1935 12:00,658.30
10/19/1935 12:00,658.40
10/20/1935 12:00,658.46
10/21/1935 12:00,658.80
10/22/1935 12:00,658.88
10/23/1935 12:00,659.22
10/24/1935 12:00,659.17
10/25/1935 12:00,659.10
10/26/1935 12:00,659.40
10/27/1935 12:00,659.43
10/28/1935 12:00,659.50
10/29/1935 12:00,659.48
10/30/1935 12:00,659.38
10/31/1935 12:00,659.42
11/1/1935 12:00,659.52
11/2/1935 12:00,659.12
11/3/1935 12:00,659.08
11/4/1935 12:00,659.04
11/5/1935 12:00,658.59
11/6/1935 12:00,658.35
11/7/1935 12:00,658.42
11/8/1935 12:00,658.44
11/9/1935 12:00,658.82
11/10/1935 12:00,659.02
11/11/1935 12:00,659.00
11/12/1935 12:00,659.05
11/13/1935 12:00,659.10
11/14/1935 12:00,659.20
11/15/1935 12:00,659.20
11/16/1935 12:00,659.20
11/17/1935 12:00,659.20
11/18/1935 12:00,659.21
11/19/1935 12:00,659.20
11/20/1935 12:00,659.21
11/21/1935 12:00,659.20
11/22/1935 12:00,659.26
11/23/1935 12:00,659.12
11/24/1935 12:00,659.10
11/25/1935 12:00,659.22
11/26/1935 12:00,659.30
11/27/1935 12:00,659.30
11/28/1935 12:00,659.35
11/29/1935 12:00,659.26
11/30/1935 12:00,659.30
12/1/1935 12:00,659.28
12/2/1935 12:00,658.96
12/3/1935 12:00,658.79
12/4/1935 12:00,658.73
12/5/1935 12:00,658.95
12/6/1935 12:00,659.16
12/7/1935 12:00,659.30
12/8/1935 12:00,659.30
12/9/1935 12:00,659.30
12/10/1935 12:00,659.30
12/11/1935 12:00,659.30
12/12/1935 12:00,659.30
12/13/1935 12:00,659.31
12/14/1935 12:00,659.30
12/15/1935 12:00,659.32
12/16/1935 12:00,659.31
12/17/1935 12:00,659.30
12/18/1935 12:00,659.30
12/19/1935 12:00,659.31
12/20/1935 12:00,659.17
12/21/1935 12:00,659.06
12/22/1935 12:00,659.22
12/23/1935 12:00,659.32
12/24/1935 12:00,659.30
12/25/1935 12:00,659.32
12/26/1935 12:00,659.29
12/27/1935 12:00,659.31
12/28/1935 12:00,659.42
12/29/1935 12:00,659.40
12/30/1935 12:00,659.44
12/31/1935 12:00,659.42
1/1/1936 12:00,659.45
1/2/1936 12:00,659.42
1/3/1936 12:00,659.40
1/4/1936 12:00,659.40
1/5/1936 12:00,659.40
1/6/1936 12:00,659.40
1/7/1936 12:00,659.39
1/8/1936 12:00,659.40
1/9/1936 12:00,659.42
1/10/1936 12:00,659.40
1/11/1936 12:00,659.40
1/12/1936 12:00,659.36
1/13/1936 12:00,659.40
1/14/1936 12:00,659.42
1/15/1936 12:00,659.34
1/16/1936 12:00,659.34
1/17/1936 12:00,659.35
1/18/1936 12:00,659.33
1/19/1936 12:00,659.25
1/20/1936 12:00,659.21
1/21/1936 12:00,659.27
1/22/1936 12:00,659.38
1/23/1936 12:00,659.24
1/24/1936 12:00,659.24
1/25/1936 12:00,659.32
1/26/1936 12:00,659.33
1/27/1936 12:00,659.32
1/28/1936 12:00,659.27
1/29/1936 12:00,659.18
1/30/1936 12:00,659.27
1/31/1936 12:00,659.32
2/1/1936 12:00,659.34
2/2/1936 12:00,659.25
2/3/1936 12:00,659.20
2/4/1936 12:00,659.34
2/5/1936 12:00,659.22
2/6/1936 12:00,659.03
2/7/1936 12:00,659.04
2/8/1936 12:00,659.08
2/9/1936 12:00,659.30
2/10/1936 12:00,659.35
2/11/1936 12:00,659.28
2/12/1936 12:00,659.16
2/13/1936 12:00,659.20
2/14/1936 12:00,659.28
2/15/1936 12:00,659.31
2/16/1936 12:00,659.29
2/17/1936 12:00,659.30
2/18/1936 12:00,659.30
2/19/1936 12:00,659.25
2/20/1936 12:00,659.15
2/21/1936 12:00,659.20
2/22/1936 12:00,659.16
2/23/1936 12:00,659.14
2/24/1936 12:00,659.15
2/25/1936 12:00,658.95
2/26/1936 12:00,658.89
2/27/1936 12:00,658.81
2/28/1936 12:00,658.70
2/29/1936 12:00,658.70
3/1/1936 12:00,658.63
3/2/1936 12:00,658.64
3/3/1936 12:00,658.64
3/4/1936 12:00,658.65
3/5/1936 12:00,658.64
3/6/1936 12:00,658.68
3/7/1936 12:00,658.74
3/8/1936 12:00,658.70
3/9/1936 12:00,658.70
3/10/1936 12:00,658.70
3/11/1936 12:00,658.75
3/12/1936 12:00,658.20
3/13/1936 12:00,657.52
3/14/1936 12:00,656.95
3/15/1936 12:00,656.90
3/16/1936 12:00,657.05
3/17/1936 12:00,657.08
3/18/1936 12:00,656.94
3/19/1936 12:00,657.02
3/20/1936 12:00,657.03
3/21/1936 12:00,656.88
3/22/1936 12:00,656.60
3/23/1936 12:00,656.75
3/24/1936 12:00,656.62
3/25/1936 12:00,656.65
3/26/1936 12:00,657.42
3/27/1936 12:00,658.25
3/28/1936 12:00,658.27
3/29/1936 12:00,658.43
3/30/1936 12:00,658.47
3/31/1936 12:00,658.45
4/1/1936 12:00,658.18
4/2/1936 12:00,658.00
4/3/1936 12:00,657.76
4/4/1936 12:00,657.47
4/5/1936 12:00,657.49
4/6/1936 12:00,657.40
4/7/1936 12:00,657.47
4/8/1936 12:00,657.47
4/9/1936 12:00,657.50
4/10/1936 12:00,657.48
4/11/1936 12:00,657.46
4/12/1936 12:00,657.51
4/13/1936 12:00,657.51
4/14/1936 12:00,657.60
4/15/1936 12:00,657.96
4/16/1936 12:00,658.42
4/17/1936 12:00,658.68
4/18/1936 12:00,658.90
4/19/1936 12:00,659.00
4/20/1936 12:00,658.94
4/21/1936 12:00,658.60
4/22/1936 12:00,658.25
4/23/1936 12:00,657.80
4/24/1936 12:00,657.40
4/25/1936 12:00,657.52
4/26/1936 12:00,657.41
4/27/1936 12:00,657.51
4/28/1936 12:00,657.55
4/29/1936 12:00,657.48
4/30/1936 12:00,657.50
5/1/1936 12:00,657.53
5/2/1936 12:00,657.45
5/3/1936 12:00,657.55
5/4/1936 12:00,657.51
5/5/1936 12:00,657.54
5/6/1936 12:00,657.60
5/7/1936 12:00,657.51
5/8/1936 12:00,657.50
5/9/1936 12:00,657.55
5/10/1936 12:00,657.75
5/11/1936 12:00,658.00
5/12/1936 12:00,657.58
5/13/1936 12:00,657.48
5/14/1936 12:00,657.50
5/15/1936 12:00,657.47
5/16/1936 12:00,657.51
5/17/1936 12:00,657.50
5/18/1936 12:00,657.51
5/19/1936 12:00,657.50
5/20/1936 12:00,657.45
5/21/1936 12:00,657.50
5/22/1936 12:00,657.53
5/23/1936 12:00,657.47
5/24/1936 12:00,657.47
5/25/1936 12:00,657.49
5/26/1936 12:00,657.95
5/27/1936 12:00,658.53
5/28/1936 12:00,658.50
5/29/1936 12:00,658.71
5/30/1936 12:00,658.66
5/31/1936 12:00,658.80
6/1/1936 12:00,658.84
6/2/1936 12:00,659.03
6/3/1936 12:00,659.23
6/4/1936 12:00,659.21
6/5/1936 12:00,659.45
6/6/1936 12:00,659.40
6/7/1936 12:00,659.30
6/8/1936 12:00,659.25
6/9/1936 12:00,659.50
6/10/1936 12:00,659.46
6/11/1936 12:00,659.51
6/12/1936 12:00,659.49
6/13/1936 12:00,659.48
6/14/1936 12:00,659.60
6/15/1936 12:00,659.50
6/16/1936 12:00,659.58
6/17/1936 12:00,659.52
6/18/1936 12:00,659.50
6/19/1936 12:00,659.52
6/20/1936 12:00,659.52
6/21/1936 12:00,659.56
6/22/1936 12:00,659.53
6/23/1936 12:00,659.42
6/24/1936 12:00,659.39
6/25/1936 12:00,659.42
6/26/1936 12:00,659.50
6/27/1936 12:00,659.53
6/28/1936 12:00,659.57
6/29/1936 12:00,659.45
6/30/1936 12:00,659.46
7/1/1936 12:00,659.39
7/2/1936 12:00,659.40
7/3/1936 12:00,659.28
7/4/1936 12:00,658.97
7/5/1936 12:00,658.91
7/6/1936 12:00,658.82
7/7/1936 12:00,658.84
7/8/1936 12:00,658.82
7/9/1936 12:00,658.79
7/10/1936 12:00,658.76
7/11/1936 12:00,658.81
7/12/1936 12:00,658.75
7/13/1936 12:00,658.75
7/14/1936 12:00,658.78
7/15/1936 12:00,658.76
7/16/1936 12:00,658.82
7/17/1936 12:00,658.75
7/18/1936 12:00,658.65
7/19/1936 12:00,658.59
7/20/1936 12:00,658.50
7/21/1936 12:00,658.47
7/22/1936 12:00,658.40
7/23/1936 12:00,658.55
7/24/1936 12:00,658.60
7/25/1936 12:00,658.75
7/26/1936 12:00,658.90
7/27/1936 12:00,659.07
7/28/1936 12:00,659.05
7/29/1936 12:00,659.05
7/30/1936 12:00,659.17
7/31/1936 12:00,659.15
8/1/1936 12:00,659.10
8/2/1936 12:00,659.15
8/3/1936 12:00,659.20
8/4/1936 12:00,659.22
8/5/1936 12:00,659.12
8/6/1936 12:00,659.10
8/7/1936 12:00,659.12
8/8/1936 12:00,659.10
8/9/1936 12:00,659.08
8/10/1936 12:00,659.22
8/11/1936 12:00,659.12
8/12/1936 12:00,659.12
8/13/1936 12:00,659.27
8/14/1936 12:00,659.12
8/15/1936 12:00,659.17
8/16/1936 12:00,659.25
8/17/1936 12:00,659.19
8/18/1936 12:00,659.10
8/19/1936 12:00,659.23
8/20/1936 12:00,659.16
8/21/1936 12:00,659.17
8/22/1936 12:00,659.17
8/23/1936 12:00,659.43
8/24/1936 12:00,659.60
8/25/1936 12:00,659.77
8/26/1936 12:00,659.84
8/27/1936 12:00,659.88
8/28/1936 12:00,660.00
8/29/1936 12:00,659.30
8/30/1936 12:00,659.68
8/31/1936 12:00,659.65
9/1/1936 12:00,659.75
9/2/1936 12:00,659.80
9/3/1936 12:00,659.89
9/4/1936 12:00,659.87
9/5/1936 12:00,659.78
9/6/1936 12:00,659.85
9/7/1936 12:00,660.00
9/8/1936 12:00,659.40
9/9/1936 12:00,659.55
9/10/1936 12:00,659.80
9/11/1936 12:00,659.81
9/12/1936 12:00,659.80
9/13/1936 12:00,659.80
9/14/1936 12:00,659.85
9/15/1936 12:00,659.93
9/16/1936 12:00,659.65
9/17/1936 12:00,659.86
9/18/1936 12:00,659.85
9/19/1936 12:00,659.86
9/20/1936 12:00,659.85
9/21/1936 12:00,659.80
9/22/1936 12:00,659.75
9/23/1936 12:00,659.80
9/24/1936 12:00,659.85
9/25/1936 12:00,659.74
9/26/1936 12:00,659.72
9/27/1936 12:00,659.87
9/28/1936 12:00,659.65
9/29/1936 12:00,659.76
9/30/1936 12:00,659.75
10/1/1936 12:00,659.85
10/2/1936 12:00,659.76
10/3/1936 12:00,659.67
10/4/1936 12:00,659.62
10/5/1936 12:00,659.72
10/6/1936 12:00,659.90
10/7/1936 12:00,659.84
10/8/1936 12:00,659.88
10/9/1936 12:00,659.88
10/10/1936 12:00,659.98
10/11/1936 12:00,659.90
10/12/1936 12:00,659.88
10/13/1936 12:00,659.82
10/14/1936 12:00,659.91
10/15/1936 12:00,659.84
10/16/1936 12:00,659.94
10/17/1936 12:00,659.99
10/18/1936 12:00,659.86
10/19/1936 12:00,659.81
10/20/1936 12:00,659.82
10/21/1936 12:00,659.85
10/22/1936 12:00,659.91
10/23/1936 12:00,659.94
10/24/1936 12:00,659.95
10/25/1936 12:00,659.98
10/26/1936 12:00,659.90
10/27/1936 12:00,659.88
10/28/1936 12:00,659.95
10/29/1936 12:00,660.00
10/30/1936 12:00,659.96
10/31/1936 12:00,659.99
11/1/1936 12:00,659.82
11/2/1936 12:00,659.91
11/3/1936 12:00,659.90
11/4/1936 12:00,659.84
11/5/1936 12:00,659.85
11/6/1936 12:00,659.85
11/7/1936 12:00,659.94
11/8/1936 12:00,659.89
11/9/1936 12:00,659.92
11/10/1936 12:00,659.84
11/11/1936 12:00,659.87
11/12/1936 12:00,659.95
11/13/1936 12:00,659.83
11/14/1936 12:00,659.90
11/15/1936 12:00,660.01
11/16/1936 12:00,659.91
11/17/1936 12:00,659.91
11/18/1936 12:00,659.86
11/19/1936 12:00,659.86
11/20/1936 12:00,659.89
11/21/1936 12:00,660.00
11/22/1936 12:00,659.88
11/23/1936 12:00,659.91
11/24/1936 12:00,659.95
11/25/1936 12:00,660.09
11/26/1936 12:00,659.95
11/27/1936 12:00,659.91
11/28/1936 12:00,659.82
11/29/1936 12:00,659.82
11/30/1936 12:00,659.70
12/1/1936 12:00,659.42
12/2/1936 12:00,659.61
12/3/1936 12:00,659.71
12/4/1936 12:00,659.69
12/5/1936 12:00,659.60
12/6/1936 12:00,659.65
12/7/1936 12:00,659.63
12/8/1936 12:00,659.57
12/9/1936 12:00,659.60
12/10/1936 12:00,659.63
12/11/1936 12:00,659.63
12/12/1936 12:00,659.68
12/13/1936 12:00,659.71
12/14/1936 12:00,659.78
12/15/1936 12:00,659.82
12/16/1936 12:00,659.82
12/17/1936 12:00,659.83
12/18/1936 12:00,659.85
12/19/1936 12:00,659.79
12/20/1936 12:00,659.82
12/21/1936 12:00,659.78
12/22/1936 12:00,659.72